Station HIST2 - 8770808 - High Island, TX Image indicating link to RSS feed of recent meteorological observations for station HIST2


Conditions at HIST2 as of
(7:18 pm CST on 12/07/2023)
0118 GMT on 12/08/2023:
     

Click on the graph icon in the table below to see a time series plot of the last five days of that observation.

5-day plot - Wind Direction Wind Direction (WDIR): SE ( 140 deg true )
5-day plot - Wind Speed Wind Speed (WSPD): 1.9 kts
5-day plot - Wind Gust Wind Gust (GST): 5.1 kts
5-day plot - Atmospheric Pressure Atmospheric Pressure (PRES):30.06 in
5-day plot - Air Temperature Air Temperature (ATMP): 61.9 °F
5-day plot - Water Temperature Water Temperature (WTMP): 67.1 °F
5-day plot - Wind Speed at 10 Meters Wind Speed at 10 meters (WSPD10M): 1.9 kts
5-day plot - Wind Speed at 20 Meters Wind Speed at 20 meters (WSPD20M): 3.9 kts
5-day plot -  Wind Speed, Wind Gust and Atmospheric Pressure Combined plot of Wind Speed, Gust, and Air Pressure
Previous observations
TIME
(CST)
5-day plot - Wind Direction
WDIR
 
5-day plot - Wind Speed
WSPD
kts
5-day plot - Wind Gust
GST
kts
5-day plot - Wave Height
WVHT
ft
5-day plot - Dominant Wave Period
DPD
sec
5-day plot - Average Wave Period
APD
sec
5-day plot - Mean Wave Direction
MWD
 
5-day plot - Atmospheric Pressure
PRES
in
5-day plot - Pressure Tendency
PTDY
in
5-day plot - Air Temperature
ATMP
°F
5-day plot - Water Temperature
WTMP
°F
5-day plot - Dew Point
DEWP
°F
5-day plot - Salinity
SAL
psu
5-day plot - Visibility
VIS
nmi
5-day plot - Tide (above MLLW)
TIDE
ft
2023-12-07 07:12 pm SE 2.9 6.0----30.06- 61.9 67.1----
2023-12-07 07:06 pmESE 4.1 6.0----30.06- 61.9 66.9----
2023-12-07 07:00 pmESE 4.1 5.1----30.06-0.02 61.7 66.9----
2023-12-07 06:54 pm SE 2.9 5.1----30.06- 61.7 66.9----
2023-12-07 06:48 pmESE 2.9 5.1----30.06- 61.5 66.9----
2023-12-07 06:42 pmESE 2.9 5.1----30.06- 61.3 66.9----
2023-12-07 06:36 pmESE 1.9 4.1----30.06- 61.2 66.9----
2023-12-07 06:30 pm SE 1.9 4.1----30.07- 61.2 66.9----
2023-12-07 06:24 pmESE 1.9 2.9----30.07- 61.2 66.9----
2023-12-07 06:18 pm SE 1.9 4.1----30.07- 61.3 66.9----
2023-12-07 06:12 pmESE 2.9 4.1----30.07- 61.3 66.9----
2023-12-07 06:06 pmESE 2.9 5.1----30.06- 61.5 66.9----
2023-12-07 06:00 pmESE 2.9 5.1----30.06-0.01 61.5 66.9----
2023-12-07 05:54 pmESE 2.9 5.1----30.06- 61.7 66.9----
2023-12-07 05:48 pmESE 4.1 5.1----30.06- 61.9 66.9----
2023-12-07 05:42 pmESE 4.1 5.1----30.06- 62.1 66.9----
2023-12-07 05:36 pmESE 4.1 5.1----30.06- 62.4 66.9----
2023-12-07 05:30 pmESE 4.1 5.1----30.06-- 66.9----
2023-12-07 05:24 pmESE 2.9 5.1----30.07-- 66.9----
2023-12-07 05:00 pmESE 4.1 5.1----30.07-0.02- 66.9----
2023-12-07 04:54 pmESE 2.9 5.1----30.07-- 66.9----
2023-12-07 04:48 pmESE 2.9 5.1----30.07- 65.3 66.9----
2023-12-07 04:42 pm SE 2.9 6.0----30.08- 65.8 66.9----
2023-12-07 04:36 pm SE 2.9 6.0----30.08- 66.2 66.9----
2023-12-07 04:30 pm SE 1.9 5.1----30.08- 66.4 66.9----
2023-12-07 04:24 pm SE 2.9 5.1----30.08- 66.6 66.9----
2023-12-07 04:18 pm SE 4.1 7.0----30.08- 66.7 66.9----
2023-12-07 04:12 pm SE 4.1 6.0----30.08- 66.9 66.9----
2023-12-07 04:06 pm SE 4.1 5.1----30.08- 66.7 66.9----
2023-12-07 04:00 pm SE 2.9 6.0----30.08-0.04 66.6 66.9----
2023-12-07 03:54 pm SE 4.1 5.1----30.08- 66.4 66.9----
2023-12-07 03:48 pm SE 2.9 7.0----30.07- 66.6 66.9----
2023-12-07 03:42 pmESE 4.1 8.0----30.08- 66.4 66.9----
2023-12-07 03:36 pmESE 4.1 6.0----30.08- 66.6 66.9----
2023-12-07 03:30 pm SE 2.9 7.0----30.07- 66.4 66.9----
2023-12-07 03:24 pmESE 4.1 8.0----30.08- 66.2 66.9----
2023-12-07 03:18 pm SE 4.1 7.0----30.08- 66.6 66.9----
2023-12-07 03:12 pm SE 4.1 6.0----30.08- 66.2 66.9----
2023-12-07 03:06 pmESE 5.1 8.9----30.08- 66.4 66.9----
2023-12-07 03:00 pm SE 5.1 8.0----30.08-0.09 66.6 66.9----
2023-12-07 02:54 pmESE 4.1 8.0----30.08- 66.6 66.9----
2023-12-07 02:48 pm SE 5.1 7.0----30.08- 66.6 66.9----
2023-12-07 02:42 pm SE 5.1 8.9----30.08- 66.4 66.9----
2023-12-07 02:36 pmESE 5.1 8.9----30.08- 66.4 66.9----
2023-12-07 02:30 pm SE 5.1 8.0----30.08- 66.6 66.9----
2023-12-07 02:24 pmESE 6.0 9.9----30.09- 66.6 66.9----
2023-12-07 02:18 pmSSE 4.1 7.0----30.09- 67.1 66.9----
2023-12-07 02:12 pm SE 5.1 7.0----30.09- 67.3 66.9----
2023-12-07 02:06 pm SE 5.1 8.0----30.09- 67.1 66.9----
2023-12-07 02:00 pm SE 5.1 7.0----30.09-0.11 66.7 66.9----
2023-12-07 01:54 pm SE 2.9 8.0----30.09- 66.9 66.9----
2023-12-07 01:48 pm SE 4.1 8.9----30.09- 66.6 66.9----
2023-12-07 01:42 pm SE 4.1 8.0----30.10- 66.7 66.9----
2023-12-07 01:36 pmSSE 4.1 7.0----30.10- 66.9 66.9----
2023-12-07 01:30 pm SE 4.1 8.9----30.10- 66.7 66.9----
2023-12-07 01:24 pm SE 4.1 8.0----30.10- 66.7 66.9----
2023-12-07 01:18 pmESE 7.0 8.9----30.11- 66.2 66.9----
2023-12-07 01:12 pmESE 5.1 8.0----30.11- 66.6 66.9----
2023-12-07 01:06 pm SE 6.0 8.9----30.11- 66.7 67.1----
2023-12-07 01:00 pmSSE 4.1 7.0----30.12-0.09 66.9-----
2023-12-07 12:54 pm SE 6.0 11.1----30.12- 66.6-----
2023-12-07 12:48 pm SE 5.1 8.9----30.13- 66.9 66.9----
2023-12-07 12:42 pmSSE 4.1 9.9----30.13- 66.9 66.9----
2023-12-07 12:36 pmSSE 7.0 9.9----30.14- 66.4 66.7----
2023-12-07 12:30 pmSSE 4.1 8.9----30.14- 66.2 66.7----
2023-12-07 12:24 pm SE 5.1 8.0----30.14- 66.2 66.7----
2023-12-07 12:18 pm SE 4.1 8.0----30.15- 66.2 66.6----
2023-12-07 12:12 pm SE 4.1 11.1----30.15- 65.8 66.6----
2023-12-07 12:06 pmSSE 6.0 8.0----30.16- 65.8 66.6----
2023-12-07 12:00 pm SE 6.0 8.9----30.16-0.06 65.8 66.6----
2023-12-07 11:54 am SE 4.1 9.9----30.17- 65.5 66.6----
2023-12-07 11:48 am SE 6.0 9.9----30.17- 65.3 66.7----
2023-12-07 11:42 amSSE 7.0 8.9----30.18- 65.7 66.7----
2023-12-07 11:36 amSSE 6.0 9.9----30.19- 65.7 66.7----
2023-12-07 11:30 am SE 5.1 9.9----30.19- 65.7 66.7----
2023-12-07 11:24 amSSE 7.0 9.9----30.20- 65.7 66.7----
2023-12-07 11:18 amSSE 7.0 9.9----30.20- 65.1 66.7----
2023-12-07 11:12 am SE 4.1 8.9----30.20- 64.9 66.7----
2023-12-07 11:06 amSSE 6.0 11.1----30.20- 64.8 66.7----
2023-12-07 11:00 amSSE 7.0 9.9----30.21-0.02 64.6 66.7----
2023-12-07 10:54 amSSE 6.0 9.9----30.21- 64.4 66.6----
2023-12-07 10:48 am SE 5.1 8.0----30.21- 64.6 66.6----
2023-12-07 10:42 amSSE 4.1 7.0----30.22- 64.2 66.4----
2023-12-07 10:36 am SE 4.1 7.0----30.22- 63.7 66.4----
2023-12-07 10:30 amSSE 5.1 8.0----30.22- 63.7 66.4----
2023-12-07 10:24 am SE 4.1 11.1----30.22- 63.3 66.4----
2023-12-07 10:18 am SE 6.0 12.0----30.21- 63.0 66.4----
2023-12-07 10:12 amESE 7.0 11.1----30.21- 62.6 66.4----
2023-12-07 10:06 amESE 6.0 11.1----30.21- 62.6 66.4----
2023-12-07 10:00 amESE 8.0 11.1----30.22-0.01 62.6 66.4----
2023-12-07 09:54 am SE 5.1 9.9----30.22- 62.2 66.4----
2023-12-07 09:48 amESE 7.0 9.9----30.22- 61.9 66.2----
2023-12-07 09:42 amESE 7.0 8.9----30.22- 61.5 66.2----
2023-12-07 09:36 amESE 5.1 8.0----30.22- 61.3 66.2----
2023-12-07 09:30 amESE 5.1 7.0----30.22- 60.8 66.2----
2023-12-07 09:24 amESE 6.0 8.9----30.22- 60.1 66.2----
2023-12-07 09:18 amESE 6.0 9.9----30.22- 60.1 66.2----
2023-12-07 09:12 amESE 6.0 8.9----30.22- 60.3 66.2----
2023-12-07 09:06 amESE 6.0 8.9----30.22- 60.3 66.2----
2023-12-07 09:00 amESE 5.1 6.0----30.23-0.01 60.1 66.2----
2023-12-07 08:54 amESE 5.1 7.0----30.22- 59.4 66.0----
2023-12-07 08:48 amESE 5.1 7.0----30.22- 58.6 66.0----
2023-12-07 08:42 amESE 4.1 5.1----30.23- 58.1 66.0----
2023-12-07 08:36 amESE 2.9 5.1----30.23- 57.6 66.0----
2023-12-07 08:30 amESE 2.9 5.1----30.23- 56.7 66.0----
2023-12-07 08:24 amESE 2.9 4.1----30.23- 55.9 66.0----
2023-12-07 08:18 amESE 1.9 4.1----30.23- 55.2 66.0----
2023-12-07 08:12 amESE 1.9 4.1----30.23- 54.5 66.0----
2023-12-07 08:06 am E 1.9 2.9----30.23- 53.6 66.0----
2023-12-07 08:00 am E 1.9 2.9----30.23+0.01 53.4 66.0----
2023-12-07 07:54 am E 1.9 2.9----30.22- 53.1 66.0----
2023-12-07 07:48 am E 1.9 4.1----30.22- 52.7 66.2----
2023-12-07 07:42 am E 4.1 5.1----30.22- 52.5 66.2----
2023-12-07 07:36 am E 4.1 6.0----30.22- 52.3 66.0----
2023-12-07 07:30 am E 2.9 5.1----30.22- 52.0 66.0----
2023-12-07 07:24 am E 1.9 4.1----30.22- 52.3 66.0----
2023-12-07 07:18 am E 1.9 5.1----30.22- 53.1 66.0----
2023-12-07 07:12 am E 4.1 5.1----30.22- 52.5 66.0----
2023-12-07 07:06 amESE 1.9 2.9----30.23- 51.4 66.0----
2023-12-07 07:00 amESE 1.0 1.9----30.23+0.01 51.3 66.0----
2023-12-07 06:54 amESE 1.0 2.9----30.23- 50.9 66.0----
2023-12-07 06:48 amESE 1.0 2.9----30.23- 50.7 66.2----
2023-12-07 06:42 am E 1.9 2.9----30.23- 50.5 66.2----
2023-12-07 06:36 am E 1.9 4.1----30.23- 50.5 66.2----
2023-12-07 06:30 am E 2.9 4.1----30.23- 50.5 66.2----
2023-12-07 06:24 am E 1.9 2.9----30.23- 50.2 66.4----
2023-12-07 06:18 am E 1.0 2.9----30.24- 50.0 66.4----
2023-12-07 06:12 am E 2.9 4.1----30.23- 49.8 66.4----
2023-12-07 06:06 am E 1.0 1.9----30.24- 49.5 66.4----
2023-12-07 06:00 am- 0.0 0.0----30.24+0.01 49.5 66.4----
2023-12-07 05:54 am- 0.0 1.0----30.24- 49.8 66.4----
2023-12-07 05:48 amWNW 1.0 1.9----30.24- 50.0 66.4----
2023-12-07 05:42 am NW 1.0 1.0----30.24- 49.8 66.4----
2023-12-07 05:36 am- 0.0 1.0----30.23- 50.7 66.4----
2023-12-07 05:30 am- 0.0 1.9----30.23- 50.7 66.4----
2023-12-07 05:24 amESE 1.0 4.1----30.23- 50.9 66.6----
2023-12-07 05:18 amESE 1.9 5.1----30.22- 50.9 66.6----
2023-12-07 05:12 amESE 2.9 5.1----30.22- 50.7 66.6----
2023-12-07 05:06 am E 2.9 4.1----30.22- 50.4 66.6----
2023-12-07 05:00 am E 2.9 4.1----30.22-0.03 50.4 66.6----
2023-12-07 04:54 am E 2.9 2.9----30.22- 50.4 66.6----
2023-12-07 04:48 am-------30.22-- 66.6----
2023-12-07 04:42 am-------30.22-- 66.6----
2023-12-07 04:36 am-------30.22-- 66.6----
2023-12-07 04:30 amENE 1.0 1.0----30.22- 49.8 66.6----
2023-12-07 04:24 am- 0.0 1.9----30.22- 49.5 66.6----
2023-12-07 04:18 am E 1.0 2.9----30.22- 49.5 66.6----
2023-12-07 04:12 am E 1.9 2.9----30.22- 49.3 66.6----
2023-12-07 04:06 am E 2.9 4.1----30.22- 49.3 66.6----
2023-12-07 04:00 am E 2.9 4.1----30.22-0.05 49.3 66.6----
2023-12-07 03:54 am E 1.9 2.9----30.22- 49.1 66.7----
2023-12-07 03:48 amENE 1.9 4.1----30.22- 49.1 66.7----
2023-12-07 03:42 am E 1.9 2.9----30.22- 49.1 66.7----
2023-12-07 03:36 amENE 1.9 2.9----30.22- 49.1 66.7----
2023-12-07 03:30 amENE 1.9 4.1----30.22- 49.3 66.6----
2023-12-07 03:24 am E 1.9 2.9----30.22- 49.3 66.6----
2023-12-07 03:18 amENE 1.9 2.9----30.22- 49.5 66.6----
2023-12-07 03:12 amENE 1.9 5.1----30.22- 49.6 66.6----
2023-12-07 03:06 am E 1.9 4.1----30.22- 49.6 66.7----
2023-12-07 03:00 am E 1.9 4.1----30.23-0.06 49.6 66.7----
2023-12-07 02:54 am E 2.9 5.1----30.23- 49.5 66.7----
2023-12-07 02:48 amENE 1.9 4.1----30.23- 49.1 66.7----
2023-12-07 02:42 amENE 2.9 5.1----30.23- 48.9 66.7----
2023-12-07 02:36 amENE 2.9 5.1----30.23- 48.7 66.7----
2023-12-07 02:30 amENE 4.1 5.1----30.24- 48.9 66.7----
2023-12-07 02:24 amENE 2.9 5.1----30.24- 48.9 66.7----
2023-12-07 02:18 amENE 2.9 4.1----30.24- 48.7 66.7----
2023-12-07 02:12 am NE 1.9 2.9----30.24- 48.9 66.6----
2023-12-07 02:06 am NE 1.9 2.9----30.24- 48.7 66.7----
2023-12-07 02:00 am NE 1.9 2.9----30.25-0.06 48.9 66.7----
2023-12-07 01:54 amENE 1.9 1.9----30.25- 48.9 66.7----
2023-12-07 01:48 am NE 1.9 2.9----30.25- 48.9 66.7----
2023-12-07 01:42 amENE 2.9 4.1----30.25- 48.7 66.7----
2023-12-07 01:36 amENE 2.9 2.9----30.25- 48.6 66.7----
2023-12-07 01:30 amENE 1.9 2.9----30.26- 48.6 66.7----
2023-12-07 01:24 am NE 1.9 1.9----30.26- 48.4 66.7----
2023-12-07 01:18 am NE 1.9 2.9----30.26- 48.4 66.7----
2023-12-07 01:12 am NE 1.9 2.9----30.26- 48.4 66.7----
2023-12-07 01:06 am NE 2.9 2.9----30.26- 48.4 66.7----
2023-12-07 01:00 am NE 1.9 2.9----30.27-0.05 48.4 66.7----
2023-12-07 12:54 amNNE 2.9 2.9----30.27- 48.4 66.7----
2023-12-07 12:48 am NE 1.0 2.9----30.27- 48.6 66.7----
2023-12-07 12:42 amNNE 1.9 2.9----30.27- 48.7 66.7----
2023-12-07 12:36 amNNE 1.9 1.9----30.27- 48.9 66.7----
2023-12-07 12:30 am N 1.0 1.9----30.27- 49.1 66.6----
2023-12-07 12:24 am NE 1.9 1.9----30.28- 49.3 66.6----
2023-12-07 12:18 amNNE 1.9 1.9----30.28- 49.1 66.4----
2023-12-07 12:12 amNNE 1.9 2.9----30.28- 49.1 66.4----
2023-12-07 12:06 amNNE 1.9 2.9----30.28- 49.5 66.4----
2023-12-07 12:00 am N 1.9 2.9----30.29-0.03 49.8 66.6----
2023-12-06 11:54 pmNNE 1.9 2.9----30.29- 49.8 66.6----
2023-12-06 11:48 pmNNE 1.9 2.9----30.29- 49.6 66.6----
2023-12-06 11:42 pmNNE 2.9 2.9----30.29- 49.8 66.6----
2023-12-06 11:36 pm N 1.9 2.9----30.30- 50.2 66.6----
2023-12-06 11:30 pm N 1.9 2.9----30.30- 49.8 66.6----
2023-12-06 11:24 pm N 1.0 1.9----30.30- 50.5 66.6----
2023-12-06 11:18 pmNNW 1.0 1.0----30.30- 51.1 66.6----
2023-12-06 11:12 pmNNW 1.0 1.9----30.30- 51.4 66.6----
2023-12-06 11:06 pm- 0.0 1.0----30.31- 51.6 66.6----
2023-12-06 11:00 pm- 0.0 0.0----30.31-0.02 51.8 66.6----
2023-12-06 10:54 pm- 0.0 0.0----30.31- 52.0 66.6----
2023-12-06 10:48 pm- 0.0 1.0----30.31- 52.2 66.6----
2023-12-06 10:42 pm- 0.0 0.0----30.31- 52.2 66.6----
2023-12-06 10:36 pm- 0.0 0.0----30.31- 52.2 66.6----
2023-12-06 10:30 pm- 0.0 1.0----30.31- 52.3 66.6----
2023-12-06 10:24 pm- 0.0 0.0----30.31- 52.7 66.4----
2023-12-06 10:18 pm- 0.0 1.0----30.31- 52.9 66.6----
2023-12-06 10:12 pm- 0.0 0.0----30.32- 53.1 66.7----
2023-12-06 10:06 pm- 0.0 1.0----30.31- 53.1 66.9----
2023-12-06 10:00 pm- 0.0 0.0----30.31-0.01 52.7 66.9----
2023-12-06 09:54 pm- 0.0 1.0----30.31- 52.9 66.9----
2023-12-06 09:48 pm- 0.0 0.0----30.31- 53.1 66.9----
2023-12-06 09:42 pm- 0.0 0.0----30.32- 53.4 66.9----
2023-12-06 09:36 pm- 0.0 0.0----30.32- 53.2 66.9----
2023-12-06 09:30 pm- 0.0 0.0----30.32- 53.1 66.9----
2023-12-06 09:24 pm- 0.0 0.0----30.32- 53.4 66.9----
2023-12-06 09:18 pm- 0.0 0.0----30.32- 53.4 66.9----
2023-12-06 09:12 pm- 0.0 0.0----30.32- 53.8 66.9----
2023-12-06 09:06 pm- 0.0 0.0----30.32- 54.0 66.9----
2023-12-06 09:00 pm- 0.0 0.0----30.32- 54.1 66.9----
2023-12-06 08:54 pm- 0.0 1.0----30.32- 54.3 66.9----
2023-12-06 08:48 pm- 0.0 1.0----30.32- 54.1 66.9----
2023-12-06 08:42 pm- 0.0 1.0----30.32- 54.1 66.9----
2023-12-06 08:36 pm- 0.0 1.0----30.32- 54.0 66.9----
2023-12-06 08:30 pm- 0.0 0.0----30.32- 54.1 66.9----
2023-12-06 08:24 pm- 0.0 1.0----30.32- 54.1 66.9----
2023-12-06 08:18 pm- 0.0 1.0----30.32- 54.1 66.9----
2023-12-06 08:12 pm- 0.0 0.0----30.32- 54.1 66.9----
2023-12-06 08:06 pm- 0.0 1.0----30.32- 54.5 66.9----
2023-12-06 08:00 pm- 0.0 1.0----30.32+0.00 54.7 66.9----
2023-12-06 07:54 pm- 0.0 1.0----30.32- 54.9 66.9----
2023-12-06 07:48 pm- 0.0 0.0----30.32- 55.0 66.9----
2023-12-06 07:42 pm- 0.0 1.0----30.32- 54.9 66.9----
2023-12-06 07:36 pm E 1.0 1.9----30.32- 54.9 66.9----
2023-12-06 07:30 pmESE 1.0 1.9----30.32- 54.7 66.9----
2023-12-06 07:24 pm SE 1.0 1.9----30.32- 54.5 66.9----
2023-12-06 07:18 pmESE 1.9 2.9----30.32- 54.5 66.9----
2023-12-06 07:12 pm SE 1.0 1.9----30.32- 54.3 66.9----
2023-12-06 07:06 pmESE 1.9 1.9----30.32- 54.3 66.9----
2023-12-06 07:00 pmESE 1.0 1.9----30.32+0.01 54.0 66.9----
2023-12-06 06:54 pm- 0.0 0.0----30.32- 54.1 66.9----